{"data":{"norad_id":51822,"epoch":"2026-05-25T03:44:29.416128Z","epoch_age_seconds":61893,"freshness":"FRESH","line1":"1 51822U 22018A   26145.15589602  .00000503  00000+0  60071-4 0  9990","line2":"2 51822  97.8087 152.8985 0001589  91.0184 269.1215 14.88415244230285","mean_motion":14.88415244,"eccentricity":0.0001589,"inclination_deg":97.8087,"raan_deg":152.8985,"arg_perigee_deg":91.0184,"mean_anomaly_deg":269.1215,"bstar":6.0071e-5,"rev_number":23028,"period_min":96.747195099273,"perigee_km":601.77724460342,"apogee_km":603.99581388101,"semimajor_km":6981.0235292422,"source":"CELESTRAK","updated_at":"2026-05-25T13:37:57.535495Z"}}